ADF AIRWAYS. MIAMI FLORIDA’S PREMIER FLIGHT TRAINING ACADEMY

Thank you for visiting ADF Airways. Located in Miami, Florida, ADF airways is a premier Flight Training school dedicated to helping those who want to learn how to fly. Whether you are a new student seeking a license to fly for fun, or an advanced pilot looking to get your ATP rating, we’re confident ADF Airways will exceed your expectations!

 

OVER 3 DECADES OF EXPERIENCE WITH A PERSONAL TOUCH

ADF Airways has been in the business of helping pilots since 1986. We take an individual approach to flight training, and can tailor your experience at whatever pace you choose. Our instructors have a combined experience of well over 40 years in the business, and we’re sure we will be able to help you live your dream. ADF Airways is :

  • An FAA-approved Part 141 Flight Academy (Part 61 training available)
  • Approved by the Department of Veterans Affairs (VA)
  • An experiecnced leader in helping students attatin a full range of ratings from Private Pilot to Airline Transport Pilot with Jet Transition training.
  • A strong partner that assists  foreign students to gain FAA ratings and student visas.
  • A quality centered organization that provides experienced Flight Instructors
  • A large provider of a wide range of single and multi-engine aircraft.

ADF Airways has been providing quality Flight instruction for over 3 decades. Established in 1986, we are located at the Kendall-Tamiami Executive Airport (TMB) in Miami, Florida. We have grown into an institution of more than 200 active students. ADF Airways is dedicated to giving each person the personal attention he or she deserves. Our experienced flight instructor staff truly enjoys teaching and giving their undivided attention to the wants and needs of each student. They here just to to help you succeed!

 

 

Our Programs and Services

ADF Airways offers a variety of programs to suit your needs. Click on any of the links below for more information

Private Pilot Course

Foreign License Conversion

Instrument Rating Course

Jet Transition Program

Commercial Pilot Course

CFI Course

FAA Testing Center

Facebook By Weblizar Powered By Weblizar

METARS

KTMB 250701Z AUTO 26006KT 1SM BR VV002 20/19 A2986 RMK AO2 T02000189

KOPF 250653Z AUTO 23005KT 10SM CLR 21/19 A2986 RMK AO2 SLP112 T02060189

KFLL 250653Z 25004KT 10SM FEW030 21/19 A2984 RMK AO2 SLP105 T02110194

TAF INFORMATION

TAF KTMB 250545Z 2506/2606 24006KT P6SM SCT005 BKN040 TEMPO 2506/2508 VRB03KT P6SM BKN005 FM250900 00000KT 5SM BR SCT005 SCT010 BKN040 TEMPO 2509/2513 3SM BR BKN005 BKN010 FM251300 VRB03KT P6SM SCT030 FM251800 25007KT P6SM SCT035 FM252200 25008KT P6SM SCT035 FM260200 28004KT P6SM SCT050

TAF KOPF 250545Z 2506/2606 21003KT P6SM FEW021 FM250900 00000KT P6SM SCT010 BKN060 TEMPO 2509/2513 3SM BR FEW005 FM251400 25005KT P6SM SCT030 FM251900 21009KT P6SM SCT035 FM260200 27007KT P6SM SCT050 FM260400 29007KT P6SM SCT050

TAF KFLL 250545Z 2506/2606 00000KT P6SM SCT030 FM250900 00000KT P6SM FEW010 SCT030 TEMPO 2509/2513 5SM BR SCT005 SCT010 FM251400 20004KT P6SM SCT030 FM251800 16009KT P6SM SCT035 FM260000 21007KT P6SM SCT100 FM260100 27006KT P6SM SCT050

SO MANY GRADUATES, SO MANY DREAMS MADE REALITY

ADF Airways has graduated many students over its 30 plus years in the business. The above gallery shows just a sample of our most recent graduates. Click here to see our gallery of graduates page.

PARTNERS